Time,TemperatureF,DewpointF,PressureIn,WindDirection,WindDirectionDegrees,WindSpeedMPH,WindSpeedGustMPH,Humidity,HourlyPrecipIn,Conditions,Clouds,dailyrainin,SoftwareType,DateUTC
2013-01-06 15:22:00,22.0,12.0,30.16,SW,232,4.0,7.0,66,0.00,,,0.00,,2013-01-06 21:22:00,
2013-01-06 15:42:00,22.0,13.0,30.16,SSW,204,6.0,7.0,67,0.00,,,0.00,,2013-01-06 21:42:00,
2013-01-06 15:52:00,22.0,13.0,30.17,SSW,206,6.0,7.0,68,0.00,,,0.00,,2013-01-06 21:52:00,
2013-01-06 16:02:00,22.0,13.0,30.17,SW,217,3.0,6.0,68,0.00,,,0.00,,2013-01-06 22:02:00,
2013-01-06 16:12:00,22.0,13.0,30.17,SW,217,3.0,6.0,68,0.00,,,0.00,,2013-01-06 22:12:00,
2013-01-06 16:22:00,22.0,13.0,30.18,SSW,212,3.0,7.0,68,0.00,,,0.00,,2013-01-06 22:22:00,
2013-01-06 16:33:00,21.0,12.0,30.18,WSW,250,4.0,8.0,68,0.00,,,0.00,,2013-01-06 22:33:00,
2013-01-06 16:43:00,21.0,12.0,30.18,WSW,250,4.0,8.0,68,0.00,,,0.00,,2013-01-06 22:43:00,
2013-01-06 16:52:00,20.0,11.0,30.16,SW,222,3.0,10.0,66,0.00,,,0.00,,2013-01-06 22:52:00,
2013-01-06 17:02:00,19.0,11.0,30.16,SSW,209,2.0,5.0,71,0.00,,,0.00,,2013-01-06 23:02:00,
2013-01-06 17:12:00,19.0,11.0,30.16,SSW,209,2.0,5.0,71,0.00,,,0.00,,2013-01-06 23:12:00,
2013-01-06 17:22:00,18.0,11.0,30.17,SW,216,3.0,5.0,74,0.00,,,0.00,,2013-01-06 23:22:00,
2013-01-06 17:33:00,18.0,11.0,30.17,SW,228,4.0,8.0,75,0.00,,,0.00,,2013-01-06 23:33:00,
2013-01-06 17:43:00,18.0,11.0,30.17,SW,228,4.0,8.0,75,0.00,,,0.00,,2013-01-06 23:43:00,
2013-01-06 17:52:00,18.0,11.0,30.17,SW,231,4.0,7.0,74,0.00,,,0.00,,2013-01-06 23:52:00,
2013-01-06 18:02:00,17.0,10.0,30.17,SSW,208,2.0,5.0,74,0.00,,,0.00,,2013-01-07 00:02:00,
2013-01-06 18:12:00,17.0,10.0,30.17,SSW,208,2.0,5.0,74,0.00,,,0.00,,2013-01-07 00:12:00,
2013-01-06 18:23:00,16.0,10.0,30.17,SSW,206,2.0,4.0,77,0.00,,,0.00,,2013-01-07 00:23:00,
2013-01-06 18:33:00,16.0,10.0,30.17,SSW,206,3.0,4.0,77,0.00,,,0.00,,2013-01-07 00:33:00,
2013-01-06 18:42:00,16.0,10.0,30.17,SSW,206,3.0,4.0,77,0.00,,,0.00,,2013-01-07 00:42:00,
2013-01-06 18:52:00,16.0,10.0,30.17,SW,215,1.0,4.0,78,0.00,,,0.00,,2013-01-07 00:52:00,
2013-01-06 19:02:00,15.0,9.0,30.17,SW,214,3.0,5.0,77,0.00,,,0.00,,2013-01-07 01:02:00,
2013-01-06 19:12:00,15.0,9.0,30.17,SW,214,3.0,5.0,77,0.00,,,0.00,,2013-01-07 01:12:00,
2013-01-06 19:22:00,15.0,9.0,30.17,SSW,204,5.0,7.0,78,0.00,,,0.00,,2013-01-07 01:22:00,
2013-01-06 19:32:00,15.0,10.0,30.17,SW,223,6.0,8.0,79,0.00,,,0.00,,2013-01-07 01:32:00,
2013-01-06 19:42:00,15.0,10.0,30.17,SW,223,6.0,8.0,79,0.00,,,0.00,,2013-01-07 01:42:00,
2013-01-06 19:52:00,14.0,9.0,30.17,SSW,209,6.0,9.0,79,0.00,,,0.00,,2013-01-07 01:52:00,
2013-01-06 20:02:00,14.0,8.0,30.17,SW,218,5.0,7.0,78,0.00,,,0.00,,2013-01-07 02:02:00,
2013-01-06 20:12:00,14.0,8.0,30.17,SW,218,5.0,7.0,78,0.00,,,0.00,,2013-01-07 02:12:00,
2013-01-06 20:22:00,14.0,8.0,30.17,SW,221,5.0,10.0,77,0.00,,,0.00,,2013-01-07 02:22:00,
2013-01-06 20:32:00,14.0,8.0,30.17,SW,215,4.0,8.0,78,0.00,,,0.00,,2013-01-07 02:32:00,
2013-01-06 20:42:00,14.0,8.0,30.17,SW,215,4.0,8.0,78,0.00,,,0.00,,2013-01-07 02:42:00,
2013-01-06 20:52:00,14.0,8.0,30.16,SW,214,3.0,6.0,78,0.00,,,0.00,,2013-01-07 02:52:00,
2013-01-06 21:02:00,13.0,8.0,30.16,SSW,212,2.0,6.0,79,0.00,,,0.00,,2013-01-07 03:02:00,
2013-01-06 21:12:00,13.0,8.0,30.16,SSW,212,2.0,6.0,79,0.00,,,0.00,,2013-01-07 03:12:00,
2013-01-06 21:22:00,13.0,8.0,30.15,SSW,208,3.0,4.0,80,0.00,,,0.00,,2013-01-07 03:22:00,
2013-01-06 21:33:00,13.0,8.0,30.15,South,182,2.0,4.0,81,0.00,,,0.00,,2013-01-07 03:33:00,
2013-01-06 21:42:00,13.0,8.0,30.15,South,182,2.0,4.0,81,0.00,,,0.00,,2013-01-07 03:42:00,
2013-01-06 21:52:00,13.0,8.0,30.15,SSW,201,3.0,6.0,80,0.00,,,0.00,,2013-01-07 03:52:00,
2013-01-06 22:02:00,12.0,7.0,30.14,South,188,3.0,6.0,81,0.00,,,0.00,,2013-01-07 04:02:00,
2013-01-06 22:12:00,12.0,7.0,30.14,South,188,3.0,6.0,81,0.00,,,0.00,,2013-01-07 04:12:00,
2013-01-06 22:22:00,12.0,8.0,30.14,South,188,2.0,7.0,82,0.00,,,0.00,,2013-01-07 04:22:00,
2013-01-06 22:32:00,12.0,8.0,30.13,SSE,165,1.0,5.0,82,0.00,,,0.00,,2013-01-07 04:32:00,
2013-01-06 22:42:00,12.0,8.0,30.13,SSE,165,1.0,5.0,82,0.00,,,0.00,,2013-01-07 04:42:00,
2013-01-06 22:52:00,12.0,7.0,30.13,South,187,1.0,4.0,80,0.00,,,0.00,,2013-01-07 04:52:00,
2013-01-06 23:02:00,13.0,8.0,30.12,SSE,167,3.0,6.0,80,0.00,,,0.00,,2013-01-07 05:02:00,
2013-01-06 23:12:00,13.0,8.0,30.12,SSE,167,3.0,6.0,80,0.00,,,0.00,,2013-01-07 05:12:00,
2013-01-06 23:22:00,13.0,8.0,30.11,SSE,168,4.0,7.0,79,0.00,,,0.00,,2013-01-07 05:22:00,
2013-01-06 23:33:00,13.0,8.0,30.11,SSE,168,4.0,7.0,79,0.00,,,0.00,,2013-01-07 05:33:00,
2013-01-06 23:42:00,13.0,8.0,30.11,SSE,168,4.0,7.0,79,0.00,,,0.00,,2013-01-07 05:42:00,
2013-01-06 23:52:00,13.0,7.0,30.11,SSE,161,3.0,8.0,78,0.00,,,0.00,,2013-01-07 05:52:00,